TimeEST,TemperatureF,Dew PointF,Humidity,Sea Level PressureIn,VisibilityMPH,Wind Direction,Wind SpeedMPH,Gust SpeedMPH,PrecipitationIn,Events,Conditions,WindDirDegrees,DateUTC
12:15 AM,52.2,48.7,88,30.39,10.0,Calm,Calm,-,N/A,,Overcast,0,2013-11-22 05:15:00
12:35 AM,52.3,48.9,88,30.39,10.0,Calm,Calm,-,N/A,,Overcast,0,2013-11-22 05:35:00
12:55 AM,52.7,48.7,86,30.38,10.0,Calm,Calm,-,N/A,,Overcast,0,2013-11-22 05:55:00
1:15 AM,51.8,50.2,94,30.38,10.0,NW,3.5,-,N/A,,Overcast,320,2013-11-22 06:15:00
1:35 AM,52.5,50.5,93,30.38,10.0,Calm,Calm,-,N/A,,Overcast,0,2013-11-22 06:35:00
1:55 AM,52.2,50.4,94,30.37,10.0,Calm,Calm,-,N/A,,Overcast,0,2013-11-22 06:55:00
2:15 AM,52.2,50.7,95,30.37,10.0,Calm,Calm,-,N/A,,Overcast,0,2013-11-22 07:15:00
2:35 AM,52.7,50.9,94,30.37,10.0,Calm,Calm,-,N/A,,Overcast,0,2013-11-22 07:35:00
2:55 AM,52.3,50.5,94,30.37,10.0,Calm,Calm,-,N/A,,Overcast,0,2013-11-22 07:55:00
3:15 AM,52.5,50.9,94,30.36,10.0,Calm,Calm,-,N/A,,Overcast,0,2013-11-22 08:15:00
3:35 AM,52.7,51.3,95,30.36,10.0,Calm,Calm,-,N/A,Rain,Light Rain,0,2013-11-22 08:35:00
3:55 AM,52.7,51.4,95,30.35,10.0,Calm,Calm,-,N/A,,Overcast,0,2013-11-22 08:55:00
4:15 AM,52.9,51.8,96,30.35,7.0,Calm,Calm,-,N/A,,Overcast,0,2013-11-22 09:15:00
4:35 AM,52.2,51.4,97,30.35,10.0,Calm,Calm,-,N/A,,Overcast,0,2013-11-22 09:35:00
4:55 AM,52.7,52.0,97,30.34,10.0,Calm,Calm,-,N/A,,Overcast,0,2013-11-22 09:55:00
5:15 AM,52.0,51.6,99,30.33,10.0,ENE,6.9,-,N/A,,Scattered Clouds,60,2013-11-22 10:15:00
5:35 AM,52.3,52.2,99,30.33,10.0,NE,3.5,-,N/A,,Mostly Cloudy,40,2013-11-22 10:35:00
5:55 AM,53.2,53.1,99,30.33,10.0,Calm,Calm,-,N/A,,Overcast,0,2013-11-22 10:55:00
6:15 AM,52.2,52.0,99,30.34,10.0,Calm,Calm,-,N/A,,Overcast,0,2013-11-22 11:15:00
6:35 AM,52.5,52.3,99,30.34,10.0,Calm,Calm,-,N/A,,Overcast,0,2013-11-22 11:35:00
6:55 AM,52.2,52.0,99,30.35,7.0,Calm,Calm,-,N/A,,Overcast,0,2013-11-22 11:55:00
7:15 AM,52.2,52.0,99,30.34,10.0,Calm,Calm,-,N/A,,Overcast,0,2013-11-22 12:15:00
7:35 AM,52.7,52.7,100,30.33,10.0,Calm,Calm,-,N/A,,Overcast,0,2013-11-22 12:35:00
7:55 AM,53.2,52.7,98,30.31,10.0,ESE,5.8,-,N/A,,Overcast,110,2013-11-22 12:55:00
8:15 AM,53.2,52.9,99,30.32,7.0,WNW,4.6,-,N/A,,Scattered Clouds,290,2013-11-22 13:15:00
8:35 AM,54.9,53.6,96,30.32,10.0,Calm,Calm,-,N/A,,Scattered Clouds,0,2013-11-22 13:35:00
8:55 AM,56.1,54.3,94,30.31,10.0,South,3.5,-,N/A,,Scattered Clouds,180,2013-11-22 13:55:00
9:15 AM,58.1,54.7,88,30.31,10.0,Calm,Calm,-,N/A,,Clear,0,2013-11-22 14:15:00
9:35 AM,59.9,54.5,82,30.32,10.0,Calm,Calm,-,N/A,,Clear,0,2013-11-22 14:35:00
9:55 AM,61.0,54.0,78,30.32,10.0,South,3.5,-,N/A,,Clear,190,2013-11-22 14:55:00
10:15 AM,63.1,54.7,74,30.32,10.0,South,3.5,-,N/A,,Clear,170,2013-11-22 15:15:00
10:35 AM,64.6,55.4,72,30.31,10.0,Calm,Calm,-,N/A,,Scattered Clouds,0,2013-11-22 15:35:00
10:55 AM,66.7,56.1,69,30.30,10.0,SW,3.5,-,N/A,,Scattered Clouds,220,2013-11-22 15:55:00
11:15 AM,68.5,57.2,67,30.29,10.0,SSW,8.1,-,N/A,,Scattered Clouds,200,2013-11-22 16:15:00
11:35 AM,69.4,57.4,65,30.28,10.0,SSW,9.2,-,N/A,,Mostly Cloudy,200,2013-11-22 16:35:00
11:55 AM,70.2,57.4,64,30.27,10.0,South,9.2,-,N/A,,Mostly Cloudy,190,2013-11-22 16:55:00
12:15 PM,70.9,57.7,63,30.25,10.0,SW,3.5,-,N/A,,Mostly Cloudy,230,2013-11-22 17:15:00
12:35 PM,70.2,58.3,66,30.25,10.0,SW,10.4,-,N/A,,Overcast,230,2013-11-22 17:35:00
12:55 PM,70.7,58.5,65,30.25,10.0,SW,8.1,-,N/A,,Overcast,230,2013-11-22 17:55:00
1:15 PM,70.3,58.5,66,30.23,10.0,SW,5.8,-,N/A,,Overcast,230,2013-11-22 18:15:00
1:35 PM,70.9,58.5,65,30.22,10.0,SW,5.8,-,N/A,,Overcast,220,2013-11-22 18:35:00
1:55 PM,69.8,59.2,69,30.22,10.0,WSW,3.5,-,N/A,Rain,Light Rain,250,2013-11-22 18:55:00
2:15 PM,70.3,59.2,68,30.22,10.0,SW,4.6,-,N/A,Rain,Light Rain,230,2013-11-22 19:15:00
2:35 PM,69.4,60.8,74,30.21,10.0,SW,4.6,-,N/A,,Overcast,220,2013-11-22 19:35:00
2:55 PM,69.1,60.3,73,30.20,10.0,SW,4.6,-,N/A,,Mostly Cloudy,220,2013-11-22 19:55:00
3:15 PM,70.3,60.6,71,30.19,10.0,SSW,9.2,-,N/A,,Mostly Cloudy,200,2013-11-22 20:15:00
3:35 PM,70.7,60.1,69,30.18,10.0,SSW,9.2,-,N/A,,Scattered Clouds,210,2013-11-22 20:35:00
3:55 PM,70.0,59.9,70,30.18,10.0,SSW,9.2,-,N/A,,Clear,210,2013-11-22 20:55:00
4:15 PM,69.4,59.9,72,30.18,10.0,SSW,5.8,-,N/A,,Clear,210,2013-11-22 21:15:00
4:35 PM,68.5,59.7,73,30.18,10.0,SSW,4.6,-,N/A,,Scattered Clouds,210,2013-11-22 21:35:00
4:55 PM,68.0,59.9,75,30.18,10.0,SW,5.8,-,N/A,,Mostly Cloudy,220,2013-11-22 21:55:00
5:15 PM,68.0,59.5,74,30.17,10.0,SW,4.6,-,N/A,,Overcast,230,2013-11-22 22:15:00
5:35 PM,67.6,59.5,75,30.16,10.0,SSW,4.6,-,N/A,,Overcast,200,2013-11-22 22:35:00
5:55 PM,66.6,59.5,78,30.16,10.0,Calm,Calm,-,N/A,,Mostly Cloudy,0,2013-11-22 22:55:00
6:15 PM,65.1,59.0,81,30.15,10.0,SSW,4.6,-,N/A,,Scattered Clouds,200,2013-11-22 23:15:00
6:35 PM,65.5,59.5,81,30.15,10.0,SSW,4.6,-,N/A,,Overcast,200,2013-11-22 23:35:00
6:55 PM,65.3,59.9,83,30.14,10.0,SSW,3.5,-,N/A,,Overcast,210,2013-11-22 23:55:00
7:15 PM,64.9,59.9,84,30.14,10.0,SSW,3.5,-,N/A,,Mostly Cloudy,200,2013-11-23 00:15:00
7:35 PM,64.9,59.9,84,30.14,10.0,Calm,Calm,-,N/A,,Mostly Cloudy,0,2013-11-23 00:35:00
7:55 PM,64.6,59.5,84,30.14,10.0,Calm,Calm,-,N/A,,Overcast,0,2013-11-23 00:55:00
8:15 PM,63.7,61.7,93,30.13,10.0,South,3.5,-,N/A,,Overcast,180,2013-11-23 01:15:00
8:35 PM,63.7,61.7,93,30.13,10.0,South,3.5,-,N/A,,Overcast,180,2013-11-23 01:35:00
8:55 PM,63.7,62.1,94,30.13,10.0,South,4.6,-,N/A,,Overcast,170,2013-11-23 01:55:00
9:15 PM,63.5,61.9,94,30.13,10.0,South,4.6,-,N/A,,Overcast,190,2013-11-23 02:15:00
9:35 PM,63.5,61.9,94,30.13,10.0,SSW,3.5,-,N/A,Rain,Light Rain,200,2013-11-23 02:35:00
9:55 PM,63.5,62.2,96,30.12,10.0,South,4.6,-,N/A,,Overcast,180,2013-11-23 02:55:00
10:15 PM,63.5,62.6,97,30.11,10.0,South,4.6,-,N/A,Rain,Light Rain,180,2013-11-23 03:15:00
10:35 PM,63.1,62.6,98,30.11,10.0,South,4.6,-,N/A,,Overcast,190,2013-11-23 03:35:00
10:55 PM,63.0,62.6,99,30.11,10.0,Calm,Calm,-,N/A,,Overcast,0,2013-11-23 03:55:00
11:15 PM,62.6,62.4,99,30.11,10.0,Calm,Calm,-,N/A,,Overcast,0,2013-11-23 04:15:00
11:35 PM,62.8,62.6,99,30.11,7.0,Calm,Calm,-,N/A,,Overcast,0,2013-11-23 04:35:00
11:55 PM,63.0,62.8,99,30.11,10.0,Calm,Calm,-,N/A,,Overcast,0,2013-11-23 04:55:00